Погода в Ипре

Бельгия     50°51′02″N   2°53′08″E
темп.,
°C
ветер,
м/с
пор.,
м/с
влажн.,
%
обл.,
%
осадки,
мм/ч
давл.,
гПа
погр.,
м
14 апреля, ср
ср1423:00+3ссв235912 0.0 103351
02:00+2св115641 0.0 103312
05:00+1ююв116112 0.0 103210
08:00+2с00615 0.0 103217
11:00+7ссв235118 0.0 1032834
14:00+9с4442100 0.1 10311920
17:00+9с764551 0.0 10311718
20:00+5ссв59645 0.0 1031646
15 апреля, чт
чт1523:00+2ссв410835 0.0 1032295
02:00+2ссв38875 0.0 1032192
05:00+1ссв35895 0.0 103299
08:00+2с24865 0.0 1032119
11:00+7с4567100 0.3 10311201
14:00+9ссв665190 1.1 10301781
17:00+10ссв6645100 0.1 10281852
20:00+7ссв596218 0.1 1029655
16 апреля, пт
пт1623:00+4св377265 0.0 1030164
02:00+3св4107685 0.0 1029223
05:00+1св37836 0.0 1029142
08:00+2св388091 0.0 1030225
11:00+8св57595 0.0 1030959
14:00+11св674297 0.0 10282005
17:00+10ссв685499 0.0 10271578
20:00+7с59706 0.0 1028503
17 апреля, сб
сб1723:00+4с410865 0.0 1028268
02:00+3ссв38895 0.0 1028186
05:00+2ссв37825 0.0 1027133
08:00+3ссв38811 0.0 1028207
11:00+9св57540 0.0 1027921
14:00+11св67414 0.0 10261518
17:00+12ссв564661 0.0 10251754
20:00+8с586958 0.0 1026405
18 апреля, вс
вс1823:00+6с387390 0.0 1026208
02:00+6с248195 0.0 1026120
05:00+5с347859 0.0 1025115
08:00+5с24765 0.0 1026109
11:00+11ссв33565 0.0 1026636
14:00+13ссв235095 0.0 10251729
17:00+12св4461100 0.0 1024922
20:00+10ссв347096 0.0 1024194